Location: Guadanolo
(41.9167°N, 12.9333°E)
Time: 06:13:52
(UTC+00:00)

Cosmos 1954 Rocket - Pass Details

Date: 16 September 2019
Orbit: 753 x 781 km, 74.0° (Epoch: 15 October)

Event Time Altitude Azimuth Distance (km) Brightness Sun altitude
Rises 19:47:39 0° 342° (NNW) 3,243 8.0 -27.4°
Reaches altitude 10° 19:50:04 10° 346° (NNW) 2,308 7.0 -27.7°
Enters shadow 19:54:08 51° 12° (NNE) 955 4.5 -28.4°
